Regional Weather Roundup
Issued by NWS

Home | Current Version | Previous Version | Graphics & Text | Print | Product List | Glossary On
Versions: 1 2 3 4 5 6 7 8 9 10 11 12 13 14 15 16 17 18 19 20 21 22 23 24 25 26 27 28 29 30 31 32 33 34 35 36 37 38 39 40 41 42 43 44 45 46 47 48 49 50
894
ASUS45 KCYS 190810
RWRWY

WYOMING REGIONAL WEATHER ROUNDUP
NATIONAL WEATHER SERVICE CHEYENNE WY
100 AM MST SUN FEB 19 2017

NOTE:  "FAIR" INDICATES FEW OR NO CLOUDS BELOW 12,000 FEET
WITH NO SIGNIFICANT WEATHER AND/OR OBSTRUCTIONS TO VISIBILITY.

WYZ001-190900-
YELLOWSTONE NATIONAL PARK

CITY           SKY/WX    TMP DP  RH WIND       PRES   REMARKS
LK YELLOWSTONE   N/A     30  30 100 VRB3      29.60F
W YELLOWSTONE  NOT AVBL

$$
WYZ002>013-054>058-071-098>099-190900-
NORTHERN WYOMING

CITY           SKY/WX    TMP DP  RH WIND       PRES   REMARKS
JACKSON        CLOUDY    34  32  93 W13       29.60F WCI  25
CODY           FAIR      39  28  64 NW3       29.52F
GREYBULL       FAIR      42  32  67 S6        29.52S
WORLAND        FAIR      39  33  79 SE12      29.53F WCI  32
SHERIDAN       FAIR      32  28  85 SE7       29.50F WCI  26
BUFFALO        FAIR      48  28  46 S18G30    29.51F
GILLETTE       FAIR      47  33  58 S23       29.54S
HULETT         FAIR      50  32  50 SW15      29.57F
NEWCASTLE      FAIR      39  30  70 CALM      29.62F

$$
WYZ014>020-022>026-101>103-190900-
CENTRAL WYOMING

CITY           SKY/WX    TMP DP  RH WIND       PRES   REMARKS
BIG PINEY      CLOUDY    28  27  96 E6        29.68F WCI  22
PINEDALE       CLOUDY    32  32 100 SE5       29.69S WCI  27
DUBOIS         CLOUDY    32  28  86 CALM      29.59F
LANDER         FAIR      34  28  79 N7        29.57F WCI  28
RIVERTON       FAIR      31  28  89 CALM      29.57F
CASPER         FAIR      41  32  70 SW17      29.63S
DOUGLAS        FAIR      36  28  73 SE3       29.64F

$$
WYZ021-027>030-104>119-190900-
SOUTHERN WYOMING

CITY           SKY/WX    TMP DP  RH WIND       PRES   REMARKS
EVANSTON       CLOUDY    35  27  72 SW8       29.65F WCI  29
KEMMERER         N/A     32  30  93 CALM      29.67S
FORT BRIDGER   FAIR      30  30 100 W6        29.69F WCI  24
ROCK SPRINGS   MOCLDY    39  29  67 S17       29.66F WCI  30
DIXON            N/A     33  30  90 CALM      29.75F
RAWLINS        FAIR      35  28  75 SW8       29.71F WCI  29
SARATOGA       FAIR      28  28 100 CALM      29.73S
LARAMIE        FAIR      26  23  88 S7        29.72F WCI  18
CHEYENNE       FAIR      36  23  59 NW5       29.68S WCI  32
TORRINGTON     FAIR      38  26  62 NW5       29.63F WCI  34
PINE BLUFFS    FAIR      37  23  56 W7        29.66F WCI  32

$$




USA.gov is the U.S. government's official web portal to all federal, state and local government web resources and services.